Location: Unspecified
(0.0000°N, 0.0000°E)
Time: 08:14:42
(UTC+00:00)

Tiangong 1 - Pass Details

Date: 23 February 2018
Orbit: 246 x 267 km, 42.8° (Epoch: 24 February)

Event Time Altitude Azimuth Distance (km) Brightness Sun altitude
Rises 18:32:28 0° 220° (SW) 1,849 5.4 -4.7°
Reaches altitude 10° 18:34:23 10° 216° (SW) 1,039 4.0 -5.2°
Maximum altitude 18:36:40 59° 135° (SE) 299 0.3 -5.8°
Drops below altitude 10° 18:38:56 10° 53° (NE) 1,024 2.7 -6.3°
Enters shadow 18:39:29 - 52° (NE) 1,258 3.1 -6.4°
